Tracking 19177 objects as of 24-May-2018
HD Live streaming from Space Station
objects crossing your sky now

FENGYUN 1C DEB

Track FENGYUN 1C DEB now!
10-day predictions


NORAD ID: 30095
Int'l Code: 1999-025QY
Perigee: 556.6 km
Apogee: 964.0 km
Inclination: 99.3 °
Period: 99.9 minutes
Semi major axis: 7131 km
RCS: 0.0377 m2 (small)
Launch date: May 10, 1999
Source: People's Republic of China (PRC)
Launch site: Taiyaun Space Center, China (TSC)

Note: This is SATELLITE DEBRIS
aabbcc
Your satellite tracking list
Your tracking list is empty




NASA's NSSDC Master Catalog

Two Line Element Set (TLE):
1 30095U 99025QY  18143.85463782  .00000485  00000-0  10519-3 0  9998
2 30095  99.2627 109.8059 0285661 285.8526  71.1346 14.41626523593261
Source of the keplerian elements: AFSPC